Location: Carthage
(33.8834°N, 106.6595°W)
Time: 03:13:39
(UTC+00:00)

Cosmos 2322 Rocket - Pass Details

Date: 18 May 2026
Orbit: 831 x 850 km, 71.0° (Epoch: 9 June)

Event Time Altitude Azimuth Distance (km) Brightness Sun altitude
Rises 04:36:39 0° 339° (NNW) 3,406 6.5 -26.2°
Reaches altitude 10° 04:39:06 10° 340° (NNW) 2,470 5.5 -26.5°
Maximum altitude 04:44:47 86° 69° (ENE) 854 2.1 -27.2°
Enters shadow 04:44:56 84° 119° (ESE) 856 2.0 -27.2°
